Regional Weather Roundup
Issued by NWS

Home | Current Version | Previous Version | Text Only | Print | Product List | Glossary Off
Versions: 1 2 3 4 5 6 7 8 9 10 11 12 13 14 15 16 17 18 19 20 21 22 23 24 25 26 27 28 29 30 31 32 33 34 35 36 37 38 39 40 41 42 43 44 45 46 47 48 49 50

000
ASUS43 KDTX 271910
RWRMI
MICHIGAN HOURLY REGIONAL WEATHER ROUNDUP
NATIONAL WEATHER SERVICE DETROIT/PONTIAC MI
300 PM EDT MON APR 27 2015

NOTE: "FAIR" INDICATES FEW OR NO CLOUDS BELOW 12,000 FEET WITH NO
SIGNIFICANT WEATHER AND/OR OBSTRUCTION TO VISIBILITY.

MIZ047>049-052>055-059>063-066>070-074>076-081>083-272000-
SOUTHEAST LOWER MICHIGAN

CITY           SKY/WX    TMP DP  RH WIND       PRES   REMARKS
ADRIAN         CLOUDY    48  36  63 NE14      30.05S
ALMA           CLOUDY    53  33  46 N9        30.06R
ANN ARBOR      CLOUDY    47  35  63 N12       30.04R
BAD AXE        PTSUNNY   47  35  63 N13G21    30.04S
DETROIT CITY   CLOUDY    50  33  52 N10       30.02S
DETROIT        CLOUDY    50  34  54 NW13G21   30.03S
FLINT          CLOUDY    51  34  52 N12       30.04F
GROSSE ILE     CLOUDY    48  34  57 N10       30.01S
HILLSDALE      CLOUDY    47  35  63 N10       30.04R
HOWELL         CLOUDY    47  34  60 N9        30.04S

CITY           SKY/WX    TMP DP  RH WIND       PRES   REMARKS
JACKSON        CLOUDY    47  34  60 N5        30.05S
LAMBERTVILLE   CLOUDY    48  34  57 N10G16    30.03S
LANSING        CLOUDY    49  33  54 N6        30.06S
LAPEER         NOT AVBL
MASON          CLOUDY    47  33  57 N12       30.05S
MONROE         CLOUDY    48  36  61 CALM      30.02S
MT. CLEMENS    CLOUDY    48  36  63 N15G24    30.00R
PONTIAC        PTSUNNY   49  34  56 N15       30.02S
PORT HOPE        N/A     43  36  76 N9        30.03S
PORT HURON     CLOUDY    46  37  71 NE15      30.02S
TRI CITIES     PTSUNNY   53  35  50 N8        30.06S
YPSILANTI      CLOUDY    53  35  50 N14G21    30.03F
$$
MIZ043>046-050>051-056>058-064>065-071>073-077>080-272000-
SOUTHWEST LOWER MICHIGAN

CITY           SKY/WX    TMP DP  RH WIND       PRES   REMARKS
BATTLE CREEK   CLOUDY    50  35  56 N8        30.06R
BENTON HARBOR  MOSUNNY   46  36  68 N10G17    30.09F
BIG RAPIDS     CLOUDY    50  33  50 N7        30.06S
COLDWATER      CLOUDY    49  35  57 N9        30.04F
HOLLAND        CLOUDY    49  35  58 NW10G20   30.09R
GRAND RAPIDS   PTSUNNY   50  33  52 N9        30.07R
KALAMAZOO      CLOUDY    53  36  52 VRB5      30.06F
MARSHALL       CLOUDY    46  33  59 N3        30.05S
MUSKEGON       PTSUNNY   52  36  54 W13       30.08S
$$
MIZ016>042-272000-
NORTHERN LOWER MICHIGAN

CITY           SKY/WX    TMP DP  RH WIND       PRES   REMARKS
ALPENA         PTSUNNY   53  32  44 N14G22    30.06S
BEAVER ISLAND  CLOUDY    51  32  49 N8        30.10S
BELLAIRE       PTSUNNY   53  32  46 N5        30.08S
CADILLAC       CLOUDY    49  33  54 NW12      30.06S
CHARLEVOIX     PTSUNNY   47  35  63 N10G17    30.13S
FRANKFORT      PTCLDY    50  30  46 N7        30.12R
GAYLORD        CLOUDY    50  32  50 VRB6      30.05R
GRAYLING       CLOUDY    51  32  48 CALM      30.05S
HARBOR SPRINGS CLOUDY    50  32  51 N7        30.08R
HOUGHTON LAKE  PTSUNNY   51  32  48 NW13      30.04F
MANISTEE       MOSUNNY   48  34  57 N17G26    30.11S
OSCODA         CLOUDY    49  34  54 NE12      30.03S
PELLSTON       CLOUDY    52  32  46 NE12      30.08S
TRAVERSE CITY  PTSUNNY   50  33  52 N13       30.09F
$$
MIZ007>008-015-272000-
EASTERN UPPER MICHIGAN

CITY           SKY/WX    TMP DP  RH WIND       PRES   REMARKS
KINROSS        CLOUDY    48  36  61 N21       30.07F
MACKINAC ISLAN PTSUNNY   52  34  49 N13       30.07F
NEWBERRY       PTSUNNY   47  35  61 N10G23    30.10S
S. S. MARIE    CLOUDY    47  34  60 NW14      30.07F
$$
MIZ004>006-011>014-085-272000-
CENTRAL UPPER MICHIGAN

CITY           SKY/WX    TMP DP  RH WIND       PRES   REMARKS
MANISTIQUE       N/A    N/A N/A N/A MISG        N/A
ESCANABA       SUNNY     54  34  47 N13G18    30.12S
MENOMINEE      SUNNY     48  34  57 E12       30.13S
SAWYER-GWINN   SUNNY     45  32  61 NE14G23   30.14S
$$
MIZ001>003-009>011-084-272000-
WESTERN UPPER MICHIGAN

CITY           SKY/WX    TMP DP  RH WIND       PRES   REMARKS
IRON MOUNTAIN  SUNNY     61  28  28 NE10G22   30.09F
HOUGHTON       SUNNY     50  31  48 NW13      30.17S
COPPER HARBOR    N/A     40  32  73 N7        30.19F
IRONWOOD       SUNNY     54  30  40 NE9G16    30.18S
$$

ABBREVIATIONS USED IN REMARKS
   TC - TEMPERATURE IN CELSIUS
  WCI - WIND CHILL INDEX
   HX - HEAT INDEX
  VSB - VISIBILITY




USA.gov is the U.S. government's official web portal to all federal, state and local government web resources and services.